Mora, MN

3:01 AM CDT on July 22, 2017 (GMT -0500)
Mora Municipal

Weather History for KJMR - June, 2013

Change the Weather History Date:

Thursday, June 6, 2013

  Actual Average Record
Temperature  
Mean Temperature 48 °F -  
Max Temperature 53 °F 78 °F 97 °F (1987)
Min Temperature 42 °F 49 °F 36 °F (1935)
Degree Days  
Heating Degree Days 18    
Moisture  
Dew Point 44 °F    
Average Humidity 85    
Maximum Humidity 100    
Minimum Humidity 72    
Precipitation  
Precipitation 0.00 in - - ()
Sea Level Pressure  
Sea Level Pressure 30.05 in    
Wind  
Wind Speed 3 mph (NE)    
Max Wind Speed 7 mph    
Max Gust Speed -    
Visibility 8 miles    
Events      
Averages and records for this station are not official NWS values.
T = Trace of Precipitation, MM = Missing Value Source: NWS Daily Summary

Daily Weather History Graph

Daily Weather History Graph

Search for Another Location

Airport or City:

Trip Planner

Search our weather history database for the weather conditions in past years. The results will help you decide how hot, cold, wet, or windy it might be!

Date:

Astronomy

Jun. 06, 2013 Rise Set
Actual Time 5:23 AM CDT 9:00 PM CDT
Civil Twilight 4:46 AM CDT 9:38 PM CDT
Nautical Twilight 3:55 AM CDT 10:28 PM CDT
Astronomical Twilight 2:48 AM CDT 11:36 PM CDT
Moon 4:11 AM CDT (6/6) 7:17 PM CDT (6/6)
Length of Visible Light 16h 52m
Length of Day
15h 36m
Waning Crescent, 3% of the Moon is Illuminated
Jun 6
Waning Crescent
Jun 8
New
Jun 16
First Quarter
Jun 23
Full
Jun 29
Last Quarter

Hourly Weather History & Observations

Time (CDT) Temp. Windchill Dew Point Humidity Pressure Visibility Wind Dir Wind Speed Gust Speed Precip Events Conditions
12:11 AM 44.6 °F 43.1 °F 42.8 °F 93% 30.04 in 10.0 mi North 3.5 mph - N/A   Overcast
12:31 AM 44.6 °F - 42.8 °F 93% 30.04 in 10.0 mi Calm Calm - N/A   Overcast
12:51 AM 44.6 °F - 42.8 °F 93% 30.04 in 10.0 mi Calm Calm - N/A   Overcast
1:11 AM 44.6 °F 43.1 °F 42.8 °F 93% 30.03 in 10.0 mi NE 3.5 mph - N/A   Overcast
1:31 AM 44.6 °F - 42.8 °F 93% 30.03 in 10.0 mi Calm Calm - N/A   Overcast
1:51 AM 44.6 °F - 42.8 °F 93% 30.03 in 10.0 mi Calm Calm - N/A   Overcast
2:09 AM 44.6 °F 43.1 °F 42.8 °F 93% 30.03 in 10.0 mi NNE 3.5 mph - N/A   Overcast
2:31 AM 44.6 °F 42.2 °F 42.8 °F 93% 30.03 in 5.0 mi NE 4.6 mph - N/A   Overcast
2:51 AM 44.6 °F - 42.8 °F 93% 30.02 in 4.0 mi Calm Calm - N/A   Overcast
3:11 AM 44.6 °F 42.2 °F 42.8 °F 93% 30.02 in 3.0 mi NE 4.6 mph - N/A   Overcast
3:31 AM 44.6 °F 43.1 °F 42.8 °F 93% 30.02 in 3.0 mi NNE 3.5 mph - N/A   Overcast
3:51 AM 44.6 °F 43.1 °F 42.8 °F 93% 30.02 in 4.0 mi NNE 3.5 mph - N/A   Overcast
4:11 AM 44.6 °F 43.1 °F 42.8 °F 93% 30.02 in 3.0 mi NE 3.5 mph - N/A   Overcast
4:31 AM 44.6 °F 43.1 °F 42.8 °F 93% 30.02 in 2.5 mi NNE 3.5 mph - N/A   Overcast
4:51 AM 44.6 °F - 42.8 °F 93% 30.02 in 5.0 mi Calm Calm - N/A   Overcast
5:11 AM 42.8 °F - 42.8 °F 100% 30.02 in 4.0 mi Calm Calm - N/A   Overcast
5:31 AM 42.8 °F - 42.8 °F 100% 30.02 in 4.0 mi Calm Calm - N/A   Overcast
5:51 AM 42.8 °F - 42.8 °F 100% 30.02 in 4.0 mi Calm Calm - N/A   Overcast
6:11 AM 44.6 °F - 42.8 °F 93% 30.03 in 4.0 mi Calm Calm - N/A   Overcast
6:31 AM 42.8 °F 40.1 °F 42.8 °F 100% 30.03 in 1.2 mi NNE 4.6 mph - N/A   Overcast
6:51 AM 42.8 °F - 42.8 °F 100% 30.03 in 1.8 mi Calm Calm - N/A   Overcast
7:11 AM 42.8 °F 41.1 °F 42.8 °F 100% 30.03 in 3.0 mi NNE 3.5 mph - N/A   Overcast
7:31 AM 44.6 °F 40.7 °F 42.8 °F 93% 30.03 in 5.0 mi NNE 6.9 mph - N/A   Overcast
7:51 AM 44.6 °F 42.2 °F 44.6 °F 100% 30.04 in 4.0 mi NE 4.6 mph - N/A   Overcast
8:11 AM 44.6 °F 41.4 °F 44.6 °F 100% 30.04 in 3.0 mi NE 5.8 mph - N/A   Overcast
8:31 AM 44.6 °F 43.1 °F 44.6 °F 100% 30.04 in 4.0 mi NNE 3.5 mph - N/A   Overcast
8:51 AM 44.6 °F 41.4 °F 44.6 °F 100% 30.04 in 7.0 mi NNE 5.8 mph - N/A   Overcast
9:11 AM 44.6 °F 43.1 °F 44.6 °F 100% 30.05 in 10.0 mi NNE 3.5 mph - N/A   Overcast
9:31 AM 46.4 °F 43.5 °F 44.6 °F 93% 30.05 in 10.0 mi NE 5.8 mph - N/A   Overcast
9:51 AM 46.4 °F 44.3 °F 44.6 °F 93% 30.05 in 10.0 mi NNE 4.6 mph - N/A   Overcast
10:11 AM 46.4 °F 45.2 °F 44.6 °F 93% 30.05 in 10.0 mi NE 3.5 mph - N/A   Overcast
10:31 AM 48.2 °F - 44.6 °F 87% 30.05 in 5.0 mi NE 3.5 mph - N/A   Overcast
10:51 AM 48.2 °F - 44.6 °F 87% 30.05 in 7.0 mi NE 6.9 mph - N/A   Overcast
11:11 AM 48.2 °F - 44.6 °F 87% 30.05 in 10.0 mi NNE 3.5 mph - N/A   Overcast
11:31 AM 50.0 °F - 46.4 °F 87% 30.05 in 10.0 mi NE 6.9 mph - N/A   Overcast
11:51 AM 50.0 °F - 46.4 °F 87% 30.06 in 10.0 mi ENE 5.8 mph - N/A   Overcast
12:11 PM 50.0 °F - 44.6 °F 82% 30.06 in 10.0 mi NNE 4.6 mph - N/A   Overcast
12:31 PM 50.0 °F - 44.6 °F 82% 30.06 in 10.0 mi North 4.6 mph - N/A   Overcast
12:51 PM 51.8 °F - 44.6 °F 76% 30.06 in 10.0 mi NE 3.5 mph - N/A   Overcast
1:11 PM 53.6 °F - 46.4 °F 77% 30.06 in 10.0 mi NNE 3.5 mph - N/A   Overcast
1:31 PM 51.8 °F - 44.6 °F 76% 30.06 in 10.0 mi North 3.5 mph - N/A   Overcast
1:51 PM 51.8 °F - 46.4 °F 82% 30.06 in 10.0 mi NE 6.9 mph - N/A   Overcast
2:11 PM 53.6 °F - 46.4 °F 77% 30.06 in 10.0 mi NE 5.8 mph - N/A   Overcast
2:31 PM 51.8 °F - 44.6 °F 76% 30.06 in 10.0 mi NNE 5.8 mph - N/A   Overcast
2:51 PM 51.8 °F - 46.4 °F 82% 30.06 in 10.0 mi NE 5.8 mph - N/A   Overcast
3:11 PM 51.8 °F - 46.4 °F 82% 30.05 in 10.0 mi NE 5.8 mph - N/A   Overcast
3:31 PM 53.6 °F - 46.4 °F 77% 30.05 in 10.0 mi NE 5.8 mph - N/A   Overcast
3:48 PM 53.6 °F - 44.6 °F 72% 30.05 in 10.0 mi NNE 3.5 mph - N/A   Overcast
4:11 PM 53.6 °F - 44.6 °F 72% 30.05 in 10.0 mi NNE 4.6 mph - N/A   Overcast
4:31 PM 53.6 °F - 44.6 °F 72% 30.05 in 10.0 mi ENE 4.6 mph - N/A   Overcast
4:51 PM 53.6 °F - 44.6 °F 72% 30.05 in 10.0 mi NE 3.5 mph - N/A   Overcast
5:11 PM 53.6 °F - 44.6 °F 72% 30.06 in 10.0 mi NNE 3.5 mph - N/A   Overcast
5:31 PM 53.6 °F - 46.4 °F 77% 30.06 in 10.0 mi NE 5.8 mph - N/A   Overcast
5:51 PM 53.6 °F - 44.6 °F 72% 30.06 in 10.0 mi ENE 4.6 mph - N/A   Overcast
6:11 PM 53.6 °F - 44.6 °F 72% 30.06 in 10.0 mi ENE 5.8 mph - N/A   Overcast
6:31 PM 53.6 °F - 46.4 °F 77% 30.06 in 10.0 mi Calm Calm - N/A   Overcast
6:51 PM 53.6 °F - 46.4 °F 77% 30.06 in 10.0 mi ENE 4.6 mph - N/A   Overcast
7:11 PM 53.6 °F - 46.4 °F 77% 30.06 in 10.0 mi NE 4.6 mph - N/A   Overcast
7:31 PM 53.6 °F - 46.4 °F 77% 30.06 in 10.0 mi Calm Calm - N/A   Overcast
7:51 PM 53.6 °F - 46.4 °F 77% 30.06 in 10.0 mi Calm Calm - N/A   Overcast
8:11 PM 53.6 °F - 46.4 °F 77% 30.05 in 10.0 mi Calm Calm - N/A   Overcast
8:31 PM 51.8 °F - 44.6 °F 76% 30.06 in 10.0 mi Calm Calm - N/A   Overcast
8:51 PM 50.0 °F - 44.6 °F 82% 30.06 in 10.0 mi Calm Calm - N/A   Overcast
9:11 PM 50.0 °F - 42.8 °F 76% 30.06 in 10.0 mi Calm Calm - N/A   Overcast
9:31 PM 50.0 °F - 42.8 °F 76% 30.07 in 10.0 mi Calm Calm - N/A   Overcast
9:51 PM 50.0 °F - 42.8 °F 76% 30.07 in 10.0 mi Calm Calm - N/A   Overcast
10:11 PM 50.0 °F - 42.8 °F 76% 30.08 in 10.0 mi Calm Calm - N/A   Overcast
10:31 PM 50.0 °F - 42.8 °F 76% 30.07 in 10.0 mi Calm Calm - N/A   Overcast
10:51 PM 50.0 °F - 42.8 °F 76% 30.07 in 10.0 mi Calm Calm - N/A   Overcast
11:11 PM 50.0 °F - 42.8 °F 76% 30.07 in 10.0 mi Calm Calm - N/A   Overcast
11:29 PM 50.0 °F - 42.8 °F 76% 30.07 in 10.0 mi Calm Calm - N/A   Overcast
11:51 PM 50.0 °F - 42.8 °F 76% 30.07 in 10.0 mi Calm Calm - N/A   Overcast